Tracking 19625 objects as of 25-May-2019
HD Live streaming from Space Station
objects crossing your sky now
Watch Starlink satellites crossing your sky!

METEOR 1-10 DEB

Track METEOR 1-10 DEB now!
10-day predictions


NORAD ID: 43292
Int'l Code: 1971-120W
Perigee: 664.2 km
Apogee: 698.4 km
Inclination: 81.2 °
Period: 98.2 minutes
Semi major axis: 7052 km
RCS: Unknown
Launch date: December 29, 1971
Source: Commonwealth of Independent States (former USSR) (CIS)
Launch site: PLESETSK MISSILE AND SPACE COMPLEX (PKMTR)

Note: This is SATELLITE DEBRIS
aabbcc
Your satellite tracking list
Your tracking list is empty




NASA's NSSDC Master Catalog

Two Line Element Set (TLE):
1 43292U 71120W   19144.43635095 +.00001982 +00000-0 +35816-3 0  9991
2 43292 081.2312 152.1215 0024189 106.6598 253.7262 14.65905985230458
Source of the keplerian elements: AFSPC